Regional Weather Roundup
Issued by NWS

Home | Current Version | Previous Version | Text Only | Print | Product List | Glossary On
Versions: 1 2 3 4 5 6 7 8 9 10 11 12 13 14 15 16 17 18 19 20 21 22 23 24 25 26 27 28 29 30 31 32 33 34 35 36 37 38 39 40 41 42 43 44 45 46 47 48 49 50
000
ASUS42 KTBW 040117
RWRFL
FLORIDA REGIONAL WEATHER ROUNDUP
NATIONAL WEATHER SERVICE TAMPA BAY RUSKIN FL
900 PM EDT MON AUG 03 2015

NOTE: "FAIR" INDICATES FEW OR NO CLOUDS BELOW 12,000 FEET WITH NO
SIGNIFICANT WEATHER AND/OR OBSTRUCTIONS TO VISIBILITY.


FLZ001>010-012>015-112-114-115-040200-
PANHANDLE FLORIDA

CITY           SKY/WX    TMP DP  RH WIND       PRES   REMARKS
PENSACOLA      CLEAR     85  73  67 W9        29.89R
PENSACOLA NAS  PTCLDY    83  73  72 W5        29.89R
MILTON NAS     PTCLDY    84  72  67 W7        29.89
CRESTVIEW      CLEAR     85  73  67 SW7       29.90R
DUKE FIELD     MOCLDY    85  73  66 W6        29.88R
VALPARAISO     PTCLDY    85  75  73 W5        29.88R
MARY ESTHER    CLEAR     85  74  68 W3        29.87S
TRI COUNTY     FAIR      84  72  67 SW3       29.88R
PANAMA CITY    FAIR      84  76  76 SW7       29.88R
TYNDALL AFB    CLEAR     85  78  79 W14       29.89R HX  97
APALACHICOLA   PTCLDY    86  77  74 W7        29.90R HX  97

STATION/POSITION SKY/WX   TEMP    WIND        PRES    WAVE   SWELL
                          AIR SEA DIR/SP/G            HT/PER HT/PER
                          (F)     (DEG/KT/KT) (MB)    (FT/S) (FT/S)
30.1N   87.6W              86 88  240/ 12/ 14 1011.6R   3/ 4
29.2N   88.2W              83 87  270/ 14/ 16 1013.1R   4/ 5   2/ 8
28.8N   86.0W              85 86  280/ 17/ 21 1013.0R   5/ 6
PANAMA CITY BEAC           86 88  270/ 19/ 21 1011.6R
CAPE SAN BLAS    NOT AVBL
TOWER C                    84     260/ 18/ 19 1012.8R
28.5N   84.5W              84 84  260/ 14/ 17 1013.6R   5/ 5

$$
FLZ011-016>038-118-127-128-134-139-239-040200-
NORTH FLORIDA

CITY           SKY/WX    TMP DP  RH WIND       PRES   REMARKS
MARIANNA       CLOUDY    86  73  65 VRB6      29.87R
TALLAHASSEE    MOCLDY    83  73  72 SW3       29.89R
PERRY          PTCLDY    76  76 100 CALM      29.91R
CROSS CITY       N/A     78  76  93 CALM      29.90F
LAKE CITY      CLOUDY    79  77  94 SW3       29.89S
GAINESVILLE    TSTM      74  73  97 MISG      29.93F VSB 3/4
MAYPORT NAS    CLOUDY    78  76  93 SW10      29.89R
JACKSONVILLE   LGT RAIN  78  77  96 SW5       29.88R FOG
JAX NAS        TSTM      81  76  84 S9        29.89S
JAX CRAIG      CLOUDY    78  76  93 S10       29.89R
JAX CECIL      MOCLDY    77  79 100 S12       29.89R
FERNANDINA BEA FAIR      81  77  89 S8        29.87R
ST AUGUSTINE   CLOUDY    77  75  94 SW13      29.91R

STATION/POSITION SKY/WX   TEMP    WIND        PRES    WAVE   SWELL
                          AIR SEA DIR/SP/G            HT/PER HT/PER
                          (F)     (DEG/KT/KT) (MB)    (FT/S) (FT/S)
SHELL POINT                82     250/  9/ 11   N/A
KEATON BEACH               84     270/ 10/ 12 1012.9R
CEDAR KEY                  83     260/ 10/ 14 1013.7R
FERNANDINA                 81 83  210/  5/  6 1010.7R
30.7N   81.3W                 82                N/A     4/ 6
MAYPORT                    78 83  200/  7/ 10 1011.8R
31.4N   80.9W              80 83  190/ 16/ 17 1010.8F   5/ 7   2/11
ST AUGUSTINE               76 79  220/  9/ 11 1013.4R

$$
FLZ040-043>046-052-053-057-058-063-144-040200-
INTERIOR CENTRAL FLORIDA

CITY           SKY/WX    TMP DP  RH WIND       PRES   REMARKS
OCALA          CLOUDY    79  73  83 CALM      29.95R
THE VILLAGES     N/A     79  79 100 S7        29.85S
LEESBURG       CLOUDY    79  73  82 SW8       29.96R
SANFORD        CLOUDY    80  71  74 SW9       29.95R
ORLANDO EXEC   CLOUDY    80  74  81 SW7       29.96R
ORLANDO INTL   CLOUDY    79  73  83 SW7       29.97R
KISSIMMEE      PTCLDY    79  73  83 S3        29.97R
WINTER HAVEN   PTCLDY    78  72  81 SW6       29.97S
LAKELAND       CLEAR     75  73  94 SW5       29.97F
BARTOW         FAIR      75  73  94 S5        29.97F
OKEECHOBEE       N/A    N/A N/A N/A S3        30.00R

$$
FLZ041-047-054-059-064-141-147-040200-
EAST CENTRAL FLORIDA

CITY           SKY/WX    TMP DP  RH WIND       PRES   REMARKS
DAYTONA BEACH  CLOUDY    79  72  79 SW9       29.94S
DELAND           N/A     79  73  83 S8        29.95S
NEW SMYRNA BEA PTCLDY    81  72  74 SW10      29.94S
JFK SPACE CTR  MOCLDY    80  72  77 SW6       29.96R
TITUSVILLE     PTCLDY    79  73  83 S6        29.95S
CAPE CANAVERAL MOCLDY    80  72  76 SW6       29.95R
PATRICK AFB    PTCLDY    81  73  76 SW8       29.97R
MELBOURNE      PTCLDY    79  73  82 SW5       29.97R
VERO BEACH     PTCLDY    80  71  74 SE6       29.99R
FT PIERCE      MOCLDY    79  71  76 SW5       29.99R
STUART         CLEAR     77  73  88 CALM      30.01R

STATION/POSITION SKY/WX   TEMP    WIND        PRES    WAVE   SWELL
                          AIR SEA DIR/SP/G            HT/PER HT/PER
                          (F)     (DEG/KT/KT) (MB)    (FT/S) (FT/S)
28.5N   80.2W              80 81  200/ 12/ 14 1014.5S
28.9N   78.5W              84 84  190/ 16/ 17 1015.2R
TRIDENT PIER               81 79  220/ 11/ 13 1014.8R
28.4N   80.5W                 77                N/A     1/11
27.5N   80.2W                 79                N/A     1/11

$$
FLZ050-056-061-142-242-148-248-149-249-151-251-155-255-
160-260-040200-
WEST CENTRAL FLORIDA

CITY           SKY/WX    TMP DP  RH WIND       PRES   REMARKS
CRYSTAL RIVER  MOCLDY    81  77  89 CALM      29.95R
INVERNESS      MOCLDY    79  75  89 CALM      29.96R
BROOKSVILLE    MOCLDY    77  74  90 S3        29.97S
ZEPHYRHILLS    FAIR      73  73 100 CALM      29.96F
CLEARWATER     MOCLDY    81  75  82 W8        29.96S
TAMPA INTL     MOCLDY    80  74  81 W6        29.96F
TAMPA EXEC       N/A    N/A N/A N/A MISG        N/A
PLANT CITY     PTCLDY    79  75  89 SW5       29.98F
MACDILL AFB    MOCLDY    80  80 100 W3        29.96S
PETER O KNIGHT MOCLDY    81  75  83 SW3       29.96F
ST PETERSBURG  MOCLDY    82  74  76 SW6       29.95R
SARASOTA       MOCLDY    81  73  76 SW8       29.96S
VENICE         NOT AVBL

STATION/POSITION SKY/WX   TEMP    WIND        PRES    WAVE   SWELL
                          AIR SEA DIR/SP/G            HT/PER HT/PER
                          (F)     (DEG/KT/KT) (MB)    (FT/S) (FT/S)
CEDAR KEY                  83     260/ 10/ 14 1013.7R
28.5N   84.5W              84 84  260/ 14/ 17 1013.6R   5/ 5
27.3N   84.2W                 84                N/A     3/ 6
CLEARWATER BEACH           83 80  220/ 13/ 14 1014.5F
MIDDLE TAMPA BAY           83     240/ 10/ 12 1014.8R
VENICE                     83 83  230/  6/  7 1014.9R

$$
FLZ066-069-070-075>078-162-262-165-265-040200-
SOUTHWEST FLORIDA AND KEYS

CITY           SKY/WX    TMP DP  RH WIND       PRES   REMARKS
PUNTA GORDA    MOCLDY    78  75  90 S7        30.00R
FT MYERS       CLOUDY    81  70  69 SE3       29.99R
SOUTHWEST INTL CLOUDY    82  71  69 CALM      30.00R
NAPLES         MOCLDY    86  66  51 CALM      29.99R
MARCO ISLAND   CLOUDY    82  72  69 E3        30.00R
MARATHON       CLOUDY    83  72  69 NE6       30.00S
KEY WEST NAS   CLOUDY    79  74  84 E6        29.99S
KEY WEST INTL  CLOUDY    78  75  90 NE5       30.00S

STATION/POSITION SKY/WX   TEMP    WIND        PRES    WAVE   SWELL
                          AIR SEA DIR/SP/G            HT/PER HT/PER
                          (F)     (DEG/KT/KT) (MB)    (FT/S) (FT/S)
VENICE                     83 83  230/  6/  7 1014.9R
NAPLES                        86              1016.1R
26.0N   85.6W              82 84  180/  2/  4 1015.0R   1/ 4   2/ 5
DRY TORTUGAS               82      90/ 11/ 13 1015.1F
NW FL BAY                  83      60/  3/  4 1015.9
SAND KEY                   81      60/  6/  7 1015.7R
SOMBRERO KEY               84      90/  9/  9 1016.5S
LONG KEY                   83 88   20/  7/  9 1016.8R
MOLASSES REEF              83 87   40/  4/  4 1016.2R

$$
FLZ067-068-071>074-168-172>174-040200-
SOUTHEAST FLORIDA

CITY           SKY/WX    TMP DP  RH WIND       PRES   REMARKS
W PALM BEACH   MOCLDY    77  73  87 SW3       30.01R
FT LAUDER-EXEC MOCLDY    78  73  84 CALM      30.01R
FT LAUDERDALE  CLOUDY    79  73  82 CALM      30.00R
POMPANO BEACH  PTCLDY    80  72  76 CALM      30.00R
PEMBROKE PINES PTCLDY    79  73  82 CALM      30.02R
OPA LOCKA      PTCLDY    79  73  82 CALM      30.02R
MIAMI          MOCLDY    81  71  71 NE3       30.02R
WEST KENDALL   PTCLDY    76  72  87 CALM      30.01R
HOMESTEAD      PTCLDY    76  72  86 S2        30.02R

STATION/POSITION SKY/WX   TEMP    WIND        PRES    WAVE   SWELL
                          AIR SEA DIR/SP/G            HT/PER HT/PER
                          (F)     (DEG/KT/KT) (MB)    (FT/S) (FT/S)
PORT EVERGLADES            81     350/  2/  3 1016.1R
VIRGINIA KEY               82 87   10/  2/  3 1015.3R
LAKE WORTH                 80 84  210/  3/  5 1015.3R
SETTLEMENT POINT           84     190/  9/ 11 1016.6S

$$



USA.gov is the U.S. government's official web portal to all federal, state and local government web resources and services.